Theta_e
321 321 320 321 322 321 319 319 319 320 319 318 318 316 316 317 312 297 292 300 308 317 317 304 299 299 300 296 297 293 286 282 283 285 285 290 289 291 291 293 294 301 297 303 312
321 321 321 321 322 322 319 318 319 319 319 317 316 315 316 314 299 294 302 314 315 315 301 296 295 297 294 293 293 288 283 285 286 285 285 289 288 288 289 290 292 299 305 308 311
320 320 321 321 321 321 320 318 318 318 318 316 316 316 315 306 293 293 310 314 314 311 301 298 296 296 291 291 290 288 285 288 287 288 288 288 287 288 287 287 291 296 303 304 305
320 320 320 320 320 321 321 318 318 318 317 316 316 315 313 298 287 294 312 313 315 305 298 295 293 290 288 287 291 286 289 289 290 289 288 286 288 286 286 289 292 296 306 305 304
319 319 319 319 319 320 321 318 318 317 317 316 315 314 301 291 289 298 310 306 301 299 294 292 290 289 287 288 289 286 287 289 289 289 287 289 285 285 286 287 299 305 305 304 304
319 318 319 318 319 319 320 318 317 317 316 314 313 311 295 288 296 297 299 300 299 297 294 294 290 291 288 287 287 288 288 287 289 289 289 286 284 286 285 288 299 303 303 303 304
319 318 318 318 316 317 318 317 316 316 314 314 314 297 291 289 294 296 299 298 299 298 294 295 295 291 289 287 290 288 284 286 288 289 288 288 285 283 285 288 294 299 300 301 302
319 318 317 318 316 317 318 316 316 315 315 313 310 293 287 296 294 298 299 299 300 299 297 298 297 293 290 289 288 284 283 279 286 288 288 287 282 286 286 285 286 287 288 291 291
318 317 317 317 315 317 317 316 315 315 316 311 296 291 286 301 295 298 298 297 299 299 298 300 296 291 292 287 283 284 278 280 283 287 286 285 282 287 287 287 285 286 287 289 290
318 317 317 315 316 317 316 315 313 305 300 298 296 292 293 291 296 297 298 299 298 298 296 297 293 287 285 284 278 281 280 283 282 285 284 282 283 283 285 285 284 284 286 287 289
317 317 316 315 316 315 309 303 299 294 293 289 289 290 292 296 299 296 297 298 299 295 288 293 286 280 281 284 284 284 282 281 284 285 282 280 281 283 283 282 282 283 285 286 288
316 316 315 314 313 309 300 294 292 293 288 293 293 293 294 295 292 295 299 292 292 286 291 287 281 286 287 287 285 284 281 280 283 284 281 280 281 282 283 283 283 284 284 285 287
315 312 311 313 312 302 297 295 300 297 287 291 292 292 293 295 290 291 295 293 287 284 284 283 285 288 286 283 283 281 281 279 280 281 281 278 278 279 282 283 283 283 284 285 286
312 311 312 312 302 297 295 300 299 296 278 284 288 291 293 293 288 295 294 292 288 283 284 283 286 286 283 281 282 281 281 281 279 275 272 277 270 277 279 280 282 282 282 283 283
311 310 311 308 297 293 297 300 298 293 267 284 287 295 293 289 288 290 294 291 284 283 283 281 282 282 281 280 282 280 281 280 278 272 271 271 265 273 277 277 279 280 281 282 283
310 310 309 302 297 296 299 297 294 277 267 278 286 285 285 286 287 289 289 291 288 284 283 281 284 282 281 282 282 281 279 278 276 269 263 264 266 271 275 278 278 280 281 282 283
309 306 303 301 293 297 297 292 278 271 279 277 281 284 282 281 283 284 282 281 279 273 273 279 280 281 282 279 281 279 271 265 264 265 266 260 267 275 278 279 279 280 280 281 282
310 304 299 296 295 295 291 282 271 270 273 283 283 283 280 281 280 282 280 277 280 279 272 268 269 276 281 279 277 276 270 265 259 262 266 260 266 275 277 279 279 281 281 282 282
307 297 293 295 295 294 286 273 272 277 283 282 282 276 275 280 278 278 277 277 279 279 273 270 272 279 280 280 278 275 267 274 261 254 259 266 270 276 278 275 277 279 280 281 281
296 291 290 296 294 289 281 275 274 283 284 283 278 277 269 271 276 274 275 280 280 280 278 276 269 273 280 280 278 275 276 267 264 261 257 262 258 271 270 272 275 278 278 279 281
292 286 291 294 290 283 275 269 276 284 285 282 279 273 278 273 276 273 275 279 281 279 281 274 269 271 276 269 269 270 268 269 268 268 262 259 267 271 270 268 274 276 279 278 278
288 282 292 291 282 265 271 273 285 284 285 284 282 280 276 277 276 270 276 278 282 279 277 279 275 266 270 274 276 275 272 274 267 263 265 265 269 269 266 265 264 271 276 274 273
282 281 288 289 276 269 274 277 283 282 282 282 280 281 279 272 271 277 278 283 283 280 279 279 269 263 270 271 274 271 275 274 269 272 266 263 271 266 263 265 270 271 274 277 274
283 279 280 282 278 277 273 275 277 284 283 283 282 282 279 272 277 271 278 282 282 282 288 284 275 268 268 268 267 268 272 274 271 263 271 268 275 275 276 269 271 270 271 271 269
281 276 278 274 276 278 279 278 278 276 282 283 278 280 277 270 273 269 277 279 282 285 281 278 267 271 270 268 267 270 271 270 269 273 268 275 267 274 276 269 272 270 267 266 270
280 279 277 274 281 280 281 279 277 277 280 279 275 280 279 271 277 274 278 278 278 279 279 279 265 266 264 272 273 269 273 274 272 274 269 272 273 280 280 260 267 273 266 269 271
283 285 282 279 279 277 277 279 280 280 281 282 281 280 279 280 280 281 281 280 280 278 277 272 265 260 262 264 263 264 267 272 268 264 268 266 273 263 267 267 269 272 266 271 272
Wind_Speed
10 11 12 12 13 13 14 14 14 12 10 10 8 7 7 9 4 5 6 5 7 14 10 6 2 2 2 3 4 3 5 1 3 4 1 4 1 2 1 4 3 3 1 2 10
9 9 11 12 13 13 13 14 14 12 10 9 7 8 7 7 3 7 3 11 10 9 5 6 3 4 3 2 3 5 3 5 1 1 1 4 2 5 2 1 1 2 5 7 11
8 9 10 12 12 14 14 14 14 12 10 8 8 7 6 3 2 2 10 13 9 5 2 3 1 1 3 2 1 2 4 3 2 1 1 4 2 4 2 3 4 5 7 5 7
7 8 10 11 13 14 14 15 13 12 10 9 7 8 6 2 2 3 14 13 10 2 3 3 3 3 3 2 1 3 2 1 0 1 2 2 5 3 3 2 4 4 9 6 7
8 8 8 10 12 14 15 15 13 11 9 8 7 8 3 5 3 6 13 10 4 2 3 2 3 1 4 2 2 2 1 2 1 3 1 4 2 3 4 2 5 9 7 8 7
8 7 8 10 12 14 15 14 13 10 9 8 7 7 1 4 4 7 8 6 5 4 3 5 2 0 4 3 3 2 2 2 3 4 3 3 3 3 1 3 5 7 7 6 7
6 7 7 8 12 14 14 14 13 10 8 8 7 2 7 1 4 7 7 2 4 2 2 2 1 1 1 3 1 3 3 3 3 5 3 2 3 3 2 3 5 4 4 5 6
5 6 6 7 12 15 15 15 13 9 7 7 5 3 3 3 3 5 8 5 6 3 1 2 1 4 3 1 6 4 4 2 2 6 3 3 5 4 6 3 4 3 1 3 3
5 5 5 7 12 14 14 14 10 7 6 5 2 4 2 5 5 6 4 5 7 3 2 2 3 4 5 4 5 6 2 3 2 3 4 2 4 5 7 5 5 4 4 3 3
3 1 3 8 11 13 14 10 5 6 5 2 3 4 6 5 5 5 4 4 3 5 4 7 6 4 5 6 2 3 1 2 2 5 4 2 4 2 5 3 4 3 3 3 4
3 2 5 8 10 13 6 3 5 6 10 5 3 1 3 8 2 7 4 6 4 6 5 5 7 3 2 2 2 2 2 2 1 2 3 2 5 5 1 3 3 2 1 2 5
4 5 7 9 9 9 5 6 2 2 4 6 2 2 1 2 4 9 7 4 5 3 3 6 3 2 3 5 4 5 2 3 4 4 2 5 9 7 5 4 5 5 3 2 4
4 5 8 11 5 6 6 4 4 2 5 4 3 3 4 5 3 7 6 2 5 6 6 5 1 5 3 6 5 3 2 3 3 7 3 7 7 4 3 2 2 1 2 1 0
3 5 8 10 5 0 4 6 5 2 7 9 6 5 4 2 3 2 3 2 5 4 3 6 5 3 4 4 2 1 2 1 2 4 3 4 7 6 6 7 5 5 4 3 1
6 5 6 8 5 4 2 4 3 4 7 7 8 4 6 6 5 7 3 6 4 2 4 2 4 5 6 1 1 1 3 2 2 4 5 4 5 10 1 7 9 8 7 5 3
12 9 3 5 4 1 4 2 4 10 2 7 5 7 5 7 7 7 6 7 4 4 7 3 2 4 1 2 3 1 2 6 4 4 4 3 4 9 6 7 4 4 7 6 5
9 13 7 1 1 3 2 4 8 8 4 8 4 5 2 6 6 7 5 7 3 6 5 4 2 3 4 1 2 6 7 5 8 6 7 3 1 13 5 5 4 9 8 7 5
6 7 4 3 3 1 3 8 11 4 5 3 3 2 4 5 3 7 3 4 5 5 4 4 8 2 5 3 1 3 6 7 5 2 7 2 8 9 2 6 3 6 7 6 6
5 3 3 5 4 2 7 8 9 7 3 2 2 7 6 4 1 5 4 1 1 3 5 3 5 2 4 3 3 2 3 3 8 2 4 4 10 9 4 4 1 6 7 8 7
3 3 3 7 3 5 8 4 3 3 2 1 2 2 1 5 2 5 2 2 2 2 3 2 5 2 4 1 4 4 2 5 5 1 7 6 7 9 7 8 5 8 9 9 8
4 4 3 5 4 8 5 6 4 4 1 2 0 1 2 2 1 1 1 0 2 2 3 4 5 6 2 3 7 2 2 4 3 4 5 4 8 9 8 5 11 11 10 8 8
3 4 4 3 7 2 3 6 3 1 2 1 1 2 4 2 1 1 2 5 2 3 1 1 4 4 9 1 1 2 6 6 6 8 5 2 11 3 5 5 4 7 8 6 6
3 2 3 4 4 2 3 2 0 1 1 1 1 2 2 3 3 1 1 1 0 1 2 3 2 5 9 5 4 3 4 3 2 2 9 3 12 2 4 6 8 10 11 12 7
4 3 6 6 1 7 5 1 1 1 1 1 1 2 2 4 1 3 2 1 1 1 2 1 2 9 9 8 4 3 4 6 6 4 8 11 27 12 14 6 7 8 11 7 7
4 2 4 2 4 3 2 5 3 3 0 2 4 3 4 0 3 3 3 3 1 2 2 4 6 2 3 7 5 7 12 9 12 13 10 25 9 19 13 8 9 7 5 6 9
5 5 3 2 1 5 2 4 6 3 5 3 4 4 5 5 6 3 3 3 4 0 4 1 3 2 6 5 5 6 16 16 18 16 12 21 25 25 20 2 6 10 5 9 10
1 2 4 2 2 4 4 6 6 5 1 1 4 4 4 5 4 3 3 2 3 4 5 1 4 4 8 3 5 8 13 13 4 3 6 6 14 4 6 7 8 10 6 10 10
Wind_Direction
355 355 356 354 353 354 352 351 350 346 345 344 341 350 353 342 360 29 34 292 312 321 329 280 300 353 33 63 55 105 59 214 212 160 208 349 134 7 261 112 47 10 202 288 129
341 346 348 347 348 349 353 350 348 348 344 346 346 343 354 352 68 55 309 326 323 334 354 21 33 354 34 35 34 84 120 219 226 266 299 327 23 332 6 27 25 44 26 78 124
330 334 338 341 345 346 348 351 349 344 341 347 339 337 343 343 89 356 339 339 335 1 302 312 314 32 64 46 47 156 179 170 214 297 343 322 327 325 134 257 221 192 156 119 127
320 323 330 336 338 341 343 349 348 340 341 335 340 325 323 30 87 298 340 336 330 334 320 306 40 56 87 129 40 97 49 171 164 2 338 289 313 299 283 284 325 199 145 135 153
303 311 326 330 336 340 338 345 346 338 335 330 335 327 308 52 2 317 338 334 353 2 25 13 62 96 136 114 63 71 148 45 333 14 359 321 296 284 291 0 53 112 133 159 168
285 306 320 330 338 334 334 341 341 338 333 337 341 330 311 75 304 330 339 351 11 17 23 34 80 341 95 71 97 86 69 29 355 2 337 2 305 21 290 92 98 139 178 183 189
272 297 318 327 334 329 331 337 340 331 334 331 343 34 54 103 348 333 352 318 332 12 30 34 341 58 61 79 27 97 45 350 11 344 319 14 317 257 350 118 146 198 219 220 237
278 286 303 334 329 325 330 333 330 311 330 337 341 59 77 310 310 11 345 343 354 340 71 296 21 96 54 142 26 50 44 8 333 1 3 59 276 26 352 151 148 173 202 128 77
237 276 319 339 325 323 326 318 314 298 306 325 38 78 15 327 22 318 27 341 306 301 26 302 63 78 16 74 29 13 204 213 324 53 316 164 261 358 345 123 155 109 91 86 35
213 278 342 324 322 323 324 309 322 16 2 42 56 46 14 319 309 335 340 358 351 333 19 38 44 61 27 54 225 272 303 264 269 336 347 309 265 336 359 95 148 112 79 53 18
105 58 332 319 329 329 359 358 20 0 36 100 286 130 323 301 283 2 357 354 351 40 49 3 65 56 345 313 284 309 293 310 320 35 348 330 279 287 111 86 149 164 281 353 1
52 13 339 322 340 6 51 72 131 161 57 31 43 34 342 338 2 350 7 61 53 67 340 30 80 304 293 18 67 36 33 323 290 14 5 3 280 261 199 214 203 202 230 330 349
71 11 339 325 323 38 75 62 329 322 81 4 12 10 321 10 40 327 15 59 74 47 19 102 355 333 60 30 41 45 30 350 257 326 59 337 291 238 215 171 166 166 192 192 64
40 18 350 329 58 345 49 329 339 352 77 326 347 359 349 337 33 299 12 87 38 148 83 82 325 51 73 77 26 169 319 306 357 46 254 23 277 285 224 225 218 211 219 197 150
13 3 42 61 145 62 259 313 321 57 62 306 316 301 337 55 319 1 0 24 74 58 85 268 12 23 61 340 332 146 38 42 71 77 39 354 63 270 44 249 232 219 213 209 194
31 2 18 25 51 23 309 310 52 44 297 338 326 347 16 15 360 317 20 47 137 69 35 68 53 52 16 28 37 33 46 38 56 82 16 291 114 279 197 215 203 195 202 200 190
23 39 67 73 145 307 339 40 42 90 330 308 329 9 98 345 355 24 28 19 68 55 359 355 13 337 29 353 34 60 47 335 355 10 227 308 320 244 294 279 233 194 192 199 202
34 43 19 62 319 310 64 52 65 246 244 327 318 342 60 352 16 349 54 32 36 63 89 100 334 24 353 79 159 68 132 148 227 298 272 359 244 254 280 321 312 161 164 182 199
71 8 32 334 338 74 72 52 188 197 223 341 342 56 334 353 40 37 26 198 274 48 126 94 290 344 30 9 60 272 57 153 103 42 38 249 293 309 6 329 115 159 172 201 206
90 64 306 324 355 62 73 174 180 242 313 244 124 132 201 289 29 64 347 259 351 58 116 149 355 317 300 74 24 132 158 41 2 329 288 294 287 250 293 249 233 214 210 215 211
46 50 254 351 56 46 108 213 222 237 266 354 318 21 263 267 284 285 250 64 25 57 92 120 98 286 36 196 183 28 343 40 125 144 197 284 257 214 227 235 223 229 224 221 213
85 36 322 6 52 23 104 184 224 356 31 2 75 119 181 133 293 331 288 200 20 128 70 80 140 258 230 251 251 201 204 165 129 263 240 202 260 37 217 239 244 268 248 240 224
97 242 336 76 110 338 303 329 277 102 119 147 138 72 101 161 23 244 277 57 47 142 169 165 310 349 336 12 353 233 221 172 118 78 223 138 270 324 301 306 259 244 239 235 222
83 29 333 43 14 125 138 236 163 353 318 25 24 87 136 22 34 264 283 330 60 171 132 127 197 184 200 209 148 221 240 204 146 149 256 215 271 306 284 271 278 264 252 244 216
32 234 179 271 331 72 98 148 139 183 244 112 354 207 160 20 335 253 246 293 90 353 106 126 215 234 253 223 205 217 238 208 198 223 209 271 246 268 275 251 256 260 252 222 234
126 129 357 145 124 125 12 229 176 248 144 209 163 189 171 177 199 233 180 221 232 358 183 95 264 100 285 319 244 265 257 246 235 256 270 266 280 268 283 326 284 266 251 246 239
187 32 102 322 86 92 219 176 215 140 253 192 178 140 210 237 217 271 263 279 250 184 196 203 112 56 264 355 342 303 237 224 194 220 168 211 251 19 294 283 267 273 223 242 240